User: anonymous
Location: Oronoko Observatory
(41.9167°N, 86.3833°W)
Time: 12:56:20
(UTC-04:00)
Language:

PAYLOAD A - Orbit

View from above orbital plane
View from above orbital plane
View from above satellite
View from above satellite

Ground track
Ground track

The orbit data is extracted from the following two-line orbital elements,

1 27840U 03031A   14237.48191821  .00000010  00000-0  16637-4 0  6220
2 27840 098.2326 263.2912 0097620 334.2054 166.0333 14.38719328585672
Epoch (UTC): 25 August 2014 11:33:57
Eccentricity: 0.0097620
inclination: 98.2326°
perigee height: 693 km
apogee height: 832 km
right ascension of ascending node: 263.2912°
argument of perigee: 334.2054°
revolutions per day: 14.38719328
mean anomaly at epoch: 166.0333°
orbit number at epoch: 58567

The dashed part of the orbit path shows where the satellite is in the earth's shadow,  

DLR